Date String (YYYY-MM-DD hh:mm:ss) UTC,Instrument flags,Ambient pressure (hPa),Sample flow (lpm),Bypass flow (lpm),Sample temperature (°C),Ambient temperature (°C),ASC tube jacket temperature (°C),LED temperature (°C),Box temperature (°C),Sample RH (%),Span deviation,Mass concentration (μg/m³),Mass concentration (μg/m³),Mass concentration (μg/m³)
DateTimeUTC,F1_M11,P_M11,Q1_M11,Q2_M11,T1_M11,T2_M11,T3_M11,T4_M11,T5_M11,U1_M11,ZSPAN_M11,X0_M11,X2_M11,X1_M11
2022-10-17 10:00:00,,0833.1,5.02,0.00,25.5,23.8,00.0,34.4,27.2,13.1,0000.0,0009.13,0004.48,0004.15
2022-10-17 10:01:00,,0833.2,4.99,0.00,25.5,23.8,00.0,34.4,27.2,13.2,0000.0,0009.26,0004.49,0004.16
2022-10-17 10:02:00,,0833.2,5.02,0.00,25.5,23.8,00.0,34.4,27.3,13.2,0000.0,0009.65,0004.51,0004.17
2022-10-17 10:03:00,,0833.2,4.99,0.00,25.4,23.8,00.0,34.4,27.2,13.2,0000.0,0010.38,0004.52,0004.18
2022-10-17 10:04:00,,0833.2,5.01,0.00,25.4,23.8,00.0,34.4,27.2,13.2,0000.0,0010.36,0004.51,0004.19
2022-10-17 10:05:00,,0833.2,5.00,0.00,25.4,23.8,00.0,34.4,27.3,13.2,0000.0,0010.37,0004.51,0004.17
2022-10-17 10:06:00,,0833.2,5.00,0.00,25.4,23.8,00.0,34.4,27.2,13.2,0000.0,0010.35,0004.49,0004.16
2022-10-17 10:07:00,,0833.2,5.01,0.00,25.4,23.8,00.0,34.4,27.2,13.2,0000.0,0010.79,0004.50,0004.16
2022-10-17 10:08:00,,0833.2,4.99,0.00,25.4,23.8,00.0,34.4,27.2,13.2,0000.0,0010.58,0004.50,0004.15
2022-10-17 10:09:00,,0833.3,5.02,0.00,25.4,23.7,00.0,34.4,27.2,13.2,0000.0,0009.53,0004.46,0004.16
2022-10-17 10:10:00,,0833.3,4.99,0.00,25.4,23.7,00.0,34.4,27.1,13.1,0000.0,0009.18,0004.47,0004.15
2022-10-17 10:11:00,,0833.2,5.01,0.00,25.4,23.7,00.0,34.3,27.1,13.2,0000.0,0009.25,0004.46,0004.12
2022-10-17 10:12:00,,0833.2,4.99,0.00,25.4,23.7,00.0,34.3,27.1,13.2,0000.0,0009.38,0004.44,0004.10
2022-10-17 10:13:00,,0833.3,5.00,0.00,25.4,23.7,00.0,34.3,27.1,13.2,0000.0,0008.96,0004.42,0004.07
2022-10-17 10:14:00,,0833.3,5.00,0.00,25.4,23.7,00.0,34.3,27.2,13.2,0000.0,0008.19,0004.40,0004.06
2022-10-17 10:15:00,,0833.2,5.00,0.00,25.4,23.7,00.0,34.3,27.1,13.1,0000.0,0008.17,0004.37,0004.04
2022-10-17 10:16:00,,0833.3,5.00,0.00,25.3,23.7,00.0,34.3,27.1,13.2,0000.0,0008.23,0004.37,0004.04
2022-10-17 10:17:00,,0833.3,5.00,0.00,25.3,23.7,00.0,34.3,27.1,13.2,0000.0,0008.22,0004.37,0004.03
2022-10-17 10:18:00,,0833.4,4.99,0.00,25.3,23.7,00.0,34.3,27.1,13.3,0000.0,0007.79,0004.36,0004.02
2022-10-17 10:19:00,,0833.3,5.01,0.00,25.3,23.7,00.0,34.3,27.1,13.2,0000.0,0007.76,0004.35,0004.01
2022-10-17 10:20:00,,0833.2,4.99,0.00,25.3,23.7,00.0,34.3,27.1,13.2,0000.0,0008.33,0004.32,0003.99
2022-10-17 10:21:00,,0833.3,5.01,0.00,25.3,23.7,00.0,34.3,27.2,13.1,0000.0,0008.61,0004.29,0003.99
2022-10-17 10:22:00,,0833.3,4.99,0.00,25.3,23.7,00.0,34.2,27.2,13.1,0000.0,0008.39,0004.27,0003.98
2022-10-17 10:23:00,,0833.3,5.02,0.00,25.3,23.7,00.0,34.2,27.1,13.1,0000.0,0008.18,0004.28,0003.98
2022-10-17 10:24:00,,0833.3,4.99,0.00,25.3,23.7,00.0,34.2,27.0,13.2,0000.0,0008.18,0004.28,0003.98
2022-10-17 10:25:00,,0833.4,5.02,0.00,25.3,23.6,00.0,34.2,27.0,13.1,0000.0,0008.17,0004.27,0003.96
2022-10-17 10:26:00,,0833.3,4.99,0.00,25.3,23.6,00.0,34.2,27.1,13.2,0000.0,0008.17,0004.27,0003.96
2022-10-17 10:27:00,,0833.3,5.00,0.00,25.3,23.6,00.0,34.2,27.1,13.2,0000.0,0008.50,0004.28,0003.96
2022-10-17 10:28:00,,0833.4,5.00,0.00,25.3,23.6,00.0,34.2,27.1,13.2,0000.0,0008.94,0004.25,0003.95
2022-10-17 10:29:00,,0833.4,5.00,0.00,25.3,23.6,00.0,34.2,27.1,13.2,0000.0,0008.95,0004.26,0003.94
2022-10-17 10:30:00,,0833.4,5.01,0.00,25.3,23.6,00.0,34.2,27.0,13.3,0000.0,0009.01,0004.29,0003.94
2022-10-17 10:31:00,,0833.4,4.98,0.00,25.2,23.6,00.0,34.2,27.0,13.3,0000.0,0008.70,0004.33,0003.95
2022-10-17 10:32:00,,0833.4,5.01,0.00,25.2,23.6,00.0,34.2,27.0,13.3,0000.0,0009.03,0004.33,0003.97
2022-10-17 10:33:00,,0833.4,4.99,0.00,25.2,23.6,00.0,34.2,27.1,13.2,0000.0,0008.96,0004.36,0003.98
2022-10-17 10:34:00,,0833.4,5.01,0.00,25.2,23.5,00.0,34.1,27.0,13.3,0000.0,0009.02,0004.39,0004.00
2022-10-17 10:35:00,,0833.4,5.00,0.00,25.2,23.5,00.0,34.1,27.0,13.3,0000.0,0009.03,0004.39,0004.01
2022-10-17 10:36:00,,0833.4,4.99,0.00,25.2,23.5,00.0,34.1,27.0,13.3,0000.0,0009.06,0004.41,0004.02
2022-10-17 10:37:00,,0833.3,5.01,0.00,25.2,23.5,00.0,34.1,27.0,13.3,0000.0,0009.05,0004.45,0004.06
2022-10-17 10:38:00,,0833.3,5.00,0.00,25.2,23.5,00.0,34.1,26.9,13.3,0000.0,0008.67,0004.45,0004.09
2022-10-17 10:39:00,,0833.3,5.00,0.00,25.2,23.5,00.0,34.1,26.9,13.4,0000.0,0008.22,0004.50,0004.12
2022-10-17 10:40:00,,0833.3,5.00,0.00,25.2,23.5,00.0,34.1,26.9,13.4,0000.0,0008.38,0004.55,0004.17
2022-10-17 10:41:00,,0833.3,5.01,0.00,25.1,23.5,00.0,34.1,26.9,13.3,0000.0,0008.48,0004.59,0004.21
2022-10-17 10:42:00,,0833.3,4.99,0.00,25.1,23.5,00.0,34.1,26.8,13.3,0000.0,0008.37,0004.62,0004.24
2022-10-17 10:43:00,,0833.3,4.99,0.00,25.1,23.4,00.0,34.1,26.8,13.3,0000.0,0007.62,0004.66,0004.25
2022-10-17 10:44:00,,0833.3,5.01,0.00,25.1,23.4,00.0,34.1,26.8,13.4,0000.0,0007.60,0004.71,0004.28
2022-10-17 10:45:00,,0833.3,4.99,0.00,25.1,23.4,00.0,34.1,26.8,13.5,0000.0,0007.53,0004.70,0004.31
2022-10-17 10:46:00,,0833.3,5.01,0.00,25.1,23.4,00.0,34.0,26.8,13.5,0000.0,0007.60,0004.73,0004.34
2022-10-17 10:47:00,,0833.3,4.99,0.00,25.1,23.4,00.0,34.0,26.8,13.5,0000.0,0007.57,0004.74,0004.36
2022-10-17 10:48:00,,0833.3,5.01,0.00,25.1,23.4,00.0,34.0,26.8,13.6,0000.0,0007.58,0004.74,0004.37
2022-10-17 10:49:00,,0833.3,4.98,0.00,25.1,23.4,00.0,34.0,26.8,13.7,0000.0,0007.65,0004.78,0004.40
2022-10-17 10:50:00,,0833.3,5.01,0.00,25.0,23.4,00.0,34.0,26.8,13.7,0000.0,0007.76,0004.84,0004.44
2022-10-17 10:51:00,,0833.3,4.99,0.00,25.0,23.4,00.0,34.0,26.8,13.8,0000.0,0007.76,0004.88,0004.48
2022-10-17 10:52:00,,0833.3,5.00,0.00,25.0,23.4,00.0,34.0,26.8,13.7,0000.0,0007.56,0004.85,0004.49
2022-10-17 10:53:00,,0833.3,5.01,0.00,25.0,23.4,00.0,34.0,26.8,13.7,0000.0,0007.47,0004.85,0004.52
2022-10-17 10:54:00,,0833.3,4.99,0.00,25.0,23.4,00.0,34.0,26.8,13.5,0000.0,0007.44,0004.86,0004.54
2022-10-17 10:55:00,,0833.3,5.01,0.00,25.0,23.4,00.0,34.0,26.8,13.3,0000.0,0007.36,0004.84,0004.53
2022-10-17 10:56:00,,0833.3,4.99,0.00,25.0,23.4,00.0,33.9,26.8,13.3,0000.0,0007.35,0004.84,0004.52
2022-10-17 10:57:00,,0833.3,5.01,0.00,25.0,23.3,00.0,33.9,26.8,13.2,0000.0,0007.32,0004.83,0004.51
2022-10-17 10:58:00,,0833.3,5.00,0.00,25.0,23.3,00.0,33.9,26.8,13.2,0000.0,0007.33,0004.83,0004.49
2022-10-17 10:59:00,,0833.3,5.00,0.00,25.0,23.3,00.0,33.9,26.7,13.2,0000.0,0007.26,0004.80,0004.45
